Year,Month,Day,Hour,Minute,Value (Times are PST for temperature in C)
2023,04,18,00,00,3.10
2023,04,18,00,01,3.00
2023,04,18,00,03,3.00
2023,04,18,00,05,2.90
2023,04,18,00,06,2.90
2023,04,18,00,07,2.90
2023,04,18,00,09,2.90
2023,04,18,00,10,2.80
2023,04,18,00,11,2.80
2023,04,18,00,12,2.80
2023,04,18,00,13,2.80
2023,04,18,00,14,2.80
2023,04,18,00,15,2.80
2023,04,18,00,16,2.80
2023,04,18,00,17,2.80
2023,04,18,00,18,2.80
2023,04,18,00,19,2.80
2023,04,18,00,20,2.80
2023,04,18,00,21,2.80
2023,04,18,00,22,2.80
2023,04,18,00,23,2.70
2023,04,18,00,24,2.80
2023,04,18,00,25,2.80
2023,04,18,00,26,2.70
2023,04,18,00,28,2.70
2023,04,18,00,29,2.70
2023,04,18,00,30,2.70
2023,04,18,00,31,2.70
2023,04,18,00,32,2.70
2023,04,18,00,34,2.70
2023,04,18,00,35,2.70
2023,04,18,00,36,2.60
2023,04,18,00,37,2.60
2023,04,18,00,39,2.60
2023,04,18,00,40,2.60
2023,04,18,00,41,2.60
2023,04,18,00,42,2.60
2023,04,18,00,43,2.60
2023,04,18,00,44,2.60
2023,04,18,00,45,2.60
2023,04,18,00,46,2.60
2023,04,18,00,48,2.60
2023,04,18,00,49,2.60
2023,04,18,00,50,2.60
2023,04,18,00,51,2.60
2023,04,18,00,52,2.60
2023,04,18,00,53,2.60
2023,04,18,00,54,2.60
2023,04,18,00,55,2.60
2023,04,18,00,56,2.60
2023,04,18,00,57,2.60
2023,04,18,00,58,2.60
2023,04,18,00,59,2.60
2023,04,18,01,00,2.60
2023,04,18,01,01,2.60
2023,04,18,01,02,2.60
2023,04,18,01,04,2.70
2023,04,18,01,05,2.70
2023,04,18,01,06,2.70
2023,04,18,01,07,2.70
2023,04,18,01,08,2.70
2023,04,18,01,09,2.70
2023,04,18,01,10,2.70
2023,04,18,01,11,2.70
2023,04,18,01,12,2.70
2023,04,18,01,13,2.70
2023,04,18,01,15,2.70
2023,04,18,01,16,2.80
2023,04,18,01,17,2.80
2023,04,18,01,18,2.80
2023,04,18,01,19,2.80
2023,04,18,01,20,2.80
2023,04,18,01,21,2.80
2023,04,18,01,22,2.80
2023,04,18,01,23,2.80
2023,04,18,01,24,2.80
2023,04,18,01,25,2.80
2023,04,18,01,26,2.80
2023,04,18,01,27,2.80
2023,04,18,01,28,2.80
2023,04,18,01,29,2.80
2023,04,18,01,30,2.80
2023,04,18,01,32,2.80
2023,04,18,01,33,2.80
2023,04,18,01,35,2.80
2023,04,18,01,36,2.80
2023,04,18,01,37,2.80
2023,04,18,01,38,2.80
2023,04,18,01,40,2.80
2023,04,18,01,41,2.80
2023,04,18,01,42,2.80
2023,04,18,01,43,2.80
2023,04,18,01,44,2.70
2023,04,18,01,45,2.70
2023,04,18,01,46,2.70
2023,04,18,01,47,2.70
2023,04,18,01,48,2.70
2023,04,18,01,49,2.70
2023,04,18,01,50,2.70
2023,04,18,01,51,2.70
2023,04,18,01,52,2.70
2023,04,18,01,53,2.60
2023,04,18,01,54,2.60
2023,04,18,01,55,2.60
2023,04,18,01,56,2.60
2023,04,18,01,57,2.60
2023,04,18,01,58,2.60
2023,04,18,01,59,2.70
2023,04,18,02,00,2.70
2023,04,18,02,01,2.70
2023,04,18,02,02,2.70
2023,04,18,02,03,2.70
2023,04,18,02,04,2.70
2023,04,18,02,05,2.70
2023,04,18,02,06,2.70
2023,04,18,02,07,2.70
2023,04,18,02,08,2.70
2023,04,18,02,09,2.70
2023,04,18,02,10,2.70
2023,04,18,02,11,2.70
2023,04,18,02,12,2.70
2023,04,18,02,13,2.70
2023,04,18,02,14,2.70
2023,04,18,02,15,2.80
2023,04,18,02,16,2.80
2023,04,18,02,17,2.80
2023,04,18,02,18,2.80
2023,04,18,02,19,2.80
2023,04,18,02,20,2.80
2023,04,18,02,21,2.80
2023,04,18,02,22,2.80
2023,04,18,02,23,2.80
2023,04,18,02,24,2.80
2023,04,18,02,25,2.80
2023,04,18,02,26,2.80
2023,04,18,02,27,2.90
2023,04,18,02,28,2.90
2023,04,18,02,29,2.90
2023,04,18,02,30,2.90
2023,04,18,02,31,2.90
2023,04,18,02,32,2.90
2023,04,18,02,33,2.90
2023,04,18,02,34,2.90
2023,04,18,02,35,2.90
2023,04,18,02,36,2.90
2023,04,18,02,37,2.90
2023,04,18,02,38,2.90
2023,04,18,02,39,2.90
2023,04,18,02,40,2.90
2023,04,18,02,41,2.90
2023,04,18,02,42,2.90
2023,04,18,02,43,2.90
2023,04,18,02,44,2.90
2023,04,18,02,45,2.90
2023,04,18,02,46,2.90
2023,04,18,02,47,2.90
2023,04,18,02,48,2.90
2023,04,18,02,49,2.90
2023,04,18,02,50,2.90
2023,04,18,02,51,2.90
2023,04,18,02,52,2.90
2023,04,18,02,53,2.90
2023,04,18,02,54,2.90
2023,04,18,02,55,2.90
2023,04,18,02,56,2.90
2023,04,18,02,57,2.90
2023,04,18,02,58,2.90
2023,04,18,02,59,2.90
2023,04,18,03,00,2.90
2023,04,18,03,01,2.90
2023,04,18,03,02,2.90
2023,04,18,03,03,2.90
2023,04,18,03,04,2.90
2023,04,18,03,05,2.90
2023,04,18,03,06,2.90
2023,04,18,03,07,2.90
2023,04,18,03,08,2.90
2023,04,18,03,09,2.90
2023,04,18,03,10,2.90
2023,04,18,03,11,2.90
2023,04,18,03,12,2.90
2023,04,18,03,13,2.90
2023,04,18,03,14,2.90
2023,04,18,03,15,2.90
2023,04,18,03,16,2.90
2023,04,18,03,17,2.90
2023,04,18,03,18,2.90
2023,04,18,03,19,2.90
2023,04,18,03,20,2.90
2023,04,18,03,21,2.90
2023,04,18,03,22,2.90
2023,04,18,03,23,2.90
2023,04,18,03,24,3.00
2023,04,18,03,25,3.00
2023,04,18,03,26,3.00
2023,04,18,03,27,3.00
2023,04,18,03,28,3.10
2023,04,18,03,29,3.00
2023,04,18,03,30,3.10
2023,04,18,03,31,3.10
2023,04,18,03,32,3.10
2023,04,18,03,33,3.10
2023,04,18,03,34,3.10
2023,04,18,03,35,3.10
2023,04,18,03,36,3.10
2023,04,18,03,37,3.10
2023,04,18,03,38,3.10
2023,04,18,03,39,3.10
2023,04,18,03,40,3.10
2023,04,18,03,41,3.10
2023,04,18,03,42,3.10
2023,04,18,03,43,3.10
2023,04,18,03,44,3.10
2023,04,18,03,45,3.10
2023,04,18,03,46,3.10
2023,04,18,03,47,3.10
2023,04,18,03,48,3.00
2023,04,18,03,49,3.00
2023,04,18,03,50,3.00
2023,04,18,03,51,3.00
2023,04,18,03,52,3.00
2023,04,18,03,53,3.00
2023,04,18,03,54,2.90
2023,04,18,03,55,2.90
2023,04,18,03,56,2.90
2023,04,18,03,57,3.00
2023,04,18,03,58,2.90
2023,04,18,03,59,2.90
2023,04,18,04,00,3.00
2023,04,18,04,01,2.90
2023,04,18,04,02,3.00
2023,04,18,04,03,3.00
2023,04,18,04,04,3.00
2023,04,18,04,05,3.00
2023,04,18,04,06,3.00
2023,04,18,04,07,3.00
2023,04,18,04,08,3.00
2023,04,18,04,09,3.00
2023,04,18,04,10,3.00
2023,04,18,04,11,3.10
2023,04,18,04,12,3.10
2023,04,18,04,13,3.10
2023,04,18,04,14,3.10
2023,04,18,04,15,3.10
2023,04,18,04,16,3.10
2023,04,18,04,17,3.10
2023,04,18,04,18,3.10
2023,04,18,04,19,3.10
2023,04,18,04,20,3.10
2023,04,18,04,21,3.10
2023,04,18,04,22,3.10
2023,04,18,04,23,3.10
2023,04,18,04,24,3.10
2023,04,18,04,25,3.10
2023,04,18,04,26,3.10
2023,04,18,04,27,3.10
2023,04,18,04,28,3.20
2023,04,18,04,29,3.10
2023,04,18,04,30,3.20
2023,04,18,04,31,3.20
2023,04,18,04,32,3.10
2023,04,18,04,33,3.20
2023,04,18,04,34,3.20
2023,04,18,04,35,3.20
2023,04,18,04,36,3.20
2023,04,18,04,37,3.20
2023,04,18,04,38,3.20
2023,04,18,04,39,3.20
2023,04,18,04,40,3.20
2023,04,18,04,41,3.20
2023,04,18,04,42,3.20
2023,04,18,04,43,3.20
2023,04,18,04,44,3.20
2023,04,18,04,45,3.20
2023,04,18,04,46,3.20
2023,04,18,04,47,3.20
2023,04,18,04,48,3.20
2023,04,18,04,49,3.10
2023,04,18,04,50,3.10
2023,04,18,04,51,3.20
2023,04,18,04,52,3.10
2023,04,18,04,53,3.10
2023,04,18,04,54,3.10
2023,04,18,04,55,3.10
2023,04,18,04,56,3.10
2023,04,18,04,57,3.20
2023,04,18,04,58,3.10
2023,04,18,04,59,3.20
2023,04,18,05,00,3.20
2023,04,18,05,01,3.20
2023,04,18,05,02,3.20
2023,04,18,05,03,3.20
2023,04,18,05,04,3.20
2023,04,18,05,05,3.20
2023,04,18,05,06,3.20
2023,04,18,05,07,3.20
2023,04,18,05,08,3.20
2023,04,18,05,09,3.20
2023,04,18,05,10,3.20
2023,04,18,05,11,3.20
2023,04,18,05,12,3.20
2023,04,18,05,13,3.20
2023,04,18,05,14,3.20
2023,04,18,05,15,3.20
2023,04,18,05,16,3.30
2023,04,18,05,17,3.30
2023,04,18,05,18,3.30
2023,04,18,05,19,3.30
2023,04,18,05,20,3.30
2023,04,18,05,21,3.30
2023,04,18,05,22,3.30
2023,04,18,05,23,3.30
2023,04,18,05,24,3.30
2023,04,18,05,25,3.30
2023,04,18,05,26,3.30
2023,04,18,05,27,3.30
2023,04,18,05,28,3.20
2023,04,18,05,29,3.30
2023,04,18,05,30,3.20
2023,04,18,05,31,3.30
2023,04,18,05,32,3.20
2023,04,18,05,33,3.20
2023,04,18,05,34,3.20
2023,04,18,05,35,3.20
2023,04,18,05,36,3.20
2023,04,18,05,37,3.20
2023,04,18,05,38,3.20
2023,04,18,05,39,3.20
2023,04,18,05,40,3.20
2023,04,18,05,41,3.20
2023,04,18,05,42,3.20
2023,04,18,05,43,3.20
2023,04,18,05,44,3.20
2023,04,18,05,45,3.20
2023,04,18,05,46,3.20
2023,04,18,05,47,3.20
2023,04,18,05,48,3.20
2023,04,18,05,49,3.20
2023,04,18,05,50,3.20
2023,04,18,05,51,3.20
2023,04,18,05,52,3.20
2023,04,18,05,53,3.20
2023,04,18,05,54,3.20
2023,04,18,05,55,3.20
2023,04,18,05,56,3.20
2023,04,18,05,57,3.20
2023,04,18,05,58,3.20
2023,04,18,05,59,3.20
2023,04,18,06,00,3.20
2023,04,18,06,01,3.20
2023,04,18,06,02,3.20
2023,04,18,06,03,3.20
2023,04,18,06,04,3.20
2023,04,18,06,05,3.10
2023,04,18,06,06,3.20
2023,04,18,06,07,3.20
2023,04,18,06,08,3.20
2023,04,18,06,09,3.10
2023,04,18,06,10,3.10
2023,04,18,06,11,3.10
2023,04,18,06,12,3.10
2023,04,18,06,13,3.10
2023,04,18,06,14,3.10
2023,04,18,06,15,3.10
2023,04,18,06,16,3.10
2023,04,18,06,17,3.10
2023,04,18,06,18,3.10
2023,04,18,06,19,3.10
2023,04,18,06,20,3.10
2023,04,18,06,21,3.10
2023,04,18,06,22,3.10
2023,04,18,06,23,3.10
2023,04,18,06,24,3.10
2023,04,18,06,25,3.10
2023,04,18,06,26,3.10
2023,04,18,06,27,3.10
2023,04,18,06,28,3.10
2023,04,18,06,29,3.00
2023,04,18,06,30,3.00
2023,04,18,06,31,3.10
2023,04,18,06,32,3.00
2023,04,18,06,33,3.00
2023,04,18,06,34,3.10
2023,04,18,06,35,3.00
2023,04,18,06,36,3.00
2023,04,18,06,37,3.00
2023,04,18,06,38,3.00
2023,04,18,06,39,3.10
2023,04,18,06,40,3.10
2023,04,18,06,41,3.10
2023,04,18,06,42,3.10
2023,04,18,06,43,3.10
2023,04,18,06,44,3.10
2023,04,18,06,45,3.00
2023,04,18,06,46,3.10
2023,04,18,06,47,3.00
2023,04,18,06,48,3.00
2023,04,18,06,49,3.00
2023,04,18,06,50,3.00
2023,04,18,06,51,3.00
2023,04,18,06,52,2.90
2023,04,18,06,53,2.90
2023,04,18,06,54,2.90
2023,04,18,06,55,2.90
2023,04,18,06,56,2.90
2023,04,18,06,57,2.90
2023,04,18,06,58,2.90
2023,04,18,06,59,2.90
2023,04,18,07,00,2.80
2023,04,18,07,01,2.80
2023,04,18,07,02,2.80
2023,04,18,07,03,2.80
2023,04,18,07,04,2.80
2023,04,18,07,05,2.80
2023,04,18,07,06,2.80
2023,04,18,07,07,2.80
2023,04,18,07,08,2.80
2023,04,18,07,09,2.80
2023,04,18,07,10,2.80
2023,04,18,07,11,2.80
2023,04,18,07,12,2.80
2023,04,18,07,13,2.80
2023,04,18,07,14,2.80
2023,04,18,07,15,2.80
2023,04,18,07,16,2.80
2023,04,18,07,17,2.80
2023,04,18,07,18,2.80
2023,04,18,07,19,2.80
2023,04,18,07,20,2.80
2023,04,18,07,21,2.80
2023,04,18,07,22,2.80
2023,04,18,07,23,2.80
2023,04,18,07,24,2.80
2023,04,18,07,25,2.80
2023,04,18,07,26,2.80
2023,04,18,07,27,2.80
2023,04,18,07,28,2.80
2023,04,18,07,29,2.80
2023,04,18,07,30,2.80
2023,04,18,07,31,2.80
2023,04,18,07,32,2.80
2023,04,18,07,33,2.80
2023,04,18,07,34,2.80
2023,04,18,07,35,2.80
2023,04,18,07,36,2.80
2023,04,18,07,37,2.80
2023,04,18,07,38,2.80
2023,04,18,07,39,2.80
2023,04,18,07,40,2.80
2023,04,18,07,41,2.80
2023,04,18,07,42,2.80
2023,04,18,07,43,2.80
2023,04,18,07,44,2.80
2023,04,18,07,45,2.80
2023,04,18,07,46,2.80
2023,04,18,07,47,2.80
2023,04,18,07,48,2.80
2023,04,18,07,49,2.80
2023,04,18,07,50,2.80
2023,04,18,07,51,2.80
2023,04,18,07,52,2.80
2023,04,18,07,53,2.80
2023,04,18,07,54,2.80
2023,04,18,07,55,2.80
2023,04,18,07,56,2.80
2023,04,18,07,57,2.80
2023,04,18,07,58,2.80
2023,04,18,07,59,2.70
2023,04,18,08,00,2.70
2023,04,18,08,01,2.80
2023,04,18,08,02,2.80
2023,04,18,08,03,2.80
2023,04,18,08,04,2.80
2023,04,18,08,05,2.80
2023,04,18,08,06,2.80
2023,04,18,08,07,2.80
2023,04,18,08,08,2.80
2023,04,18,08,09,2.80
2023,04,18,08,10,2.90
2023,04,18,08,11,2.90
2023,04,18,08,12,2.90
2023,04,18,08,13,2.90
2023,04,18,08,14,2.90
2023,04,18,08,15,3.00
2023,04,18,08,16,3.00
2023,04,18,08,17,3.00
2023,04,18,08,18,3.10
2023,04,18,08,19,3.10
2023,04,18,08,20,3.10
2023,04,18,08,21,3.10
2023,04,18,08,22,3.20
2023,04,18,08,23,3.20
2023,04,18,08,24,3.20
2023,04,18,08,25,3.20
2023,04,18,08,26,3.20
2023,04,18,08,27,3.20
2023,04,18,08,28,3.20
2023,04,18,08,29,3.20
2023,04,18,08,30,3.20
2023,04,18,08,31,3.20
2023,04,18,08,32,3.30
2023,04,18,08,33,3.20
2023,04,18,08,34,3.30
2023,04,18,08,35,3.30
2023,04,18,08,36,3.30
2023,04,18,08,37,3.30
2023,04,18,08,38,3.30
2023,04,18,08,39,3.30
2023,04,18,08,40,3.30
2023,04,18,08,41,3.30
2023,04,18,08,42,3.30
2023,04,18,08,43,3.30
2023,04,18,08,44,3.30
2023,04,18,08,45,3.30
2023,04,18,08,46,3.30
2023,04,18,08,47,3.30
2023,04,18,08,48,3.30
2023,04,18,08,49,3.30
2023,04,18,08,50,3.30
2023,04,18,08,51,3.30
2023,04,18,08,52,3.30
2023,04,18,08,53,3.40
2023,04,18,08,54,3.40
2023,04,18,08,55,3.40
2023,04,18,08,56,3.40
2023,04,18,08,57,3.40
2023,04,18,08,58,3.40
2023,04,18,08,59,3.40
2023,04,18,09,00,3.40
2023,04,18,09,01,3.50
2023,04,18,09,02,3.50
2023,04,18,09,03,3.50
2023,04,18,09,04,3.60
2023,04,18,09,05,3.60
2023,04,18,09,06,3.60
2023,04,18,09,07,3.60
2023,04,18,09,08,3.60
2023,04,18,09,09,3.70
2023,04,18,09,10,3.70
2023,04,18,09,11,3.70
2023,04,18,09,12,3.70
2023,04,18,09,13,3.70
2023,04,18,09,14,3.80
2023,04,18,09,15,3.80
2023,04,18,09,16,3.80
2023,04,18,09,17,3.80
2023,04,18,09,18,3.90
2023,04,18,09,20,3.90
2023,04,18,09,23,4.00
2023,04,18,09,24,4.00
2023,04,18,09,26,4.10
2023,04,18,09,27,4.10
2023,04,18,09,29,4.20
2023,04,18,09,30,4.20
2023,04,18,09,31,4.30
2023,04,18,09,32,4.30
2023,04,18,09,33,4.30
2023,04,18,09,34,4.30
2023,04,18,09,35,4.40
2023,04,18,09,37,4.40
2023,04,18,09,38,4.50
2023,04,18,09,40,4.60
2023,04,18,09,42,4.70
2023,04,18,09,43,4.70
2023,04,18,09,44,4.70
2023,04,18,09,45,4.70
2023,04,18,09,46,4.70
2023,04,18,09,47,4.80
2023,04,18,09,48,4.80
2023,04,18,09,49,4.80
2023,04,18,09,50,4.80
2023,04,18,09,52,4.90
2023,04,18,09,53,4.90
2023,04,18,09,54,4.90
2023,04,18,09,55,5.00
2023,04,18,09,56,5.00
2023,04,18,09,57,5.00
2023,04,18,09,58,5.10
2023,04,18,09,59,5.10
2023,04,18,10,00,5.20
2023,04,18,10,01,5.20
2023,04,18,10,02,5.30
2023,04,18,10,03,5.40
2023,04,18,10,04,5.50
2023,04,18,10,05,5.60
2023,04,18,10,06,5.60
2023,04,18,10,07,5.60
2023,04,18,10,08,5.70
2023,04,18,10,10,5.80
2023,04,18,10,12,5.90
2023,04,18,10,13,5.90
2023,04,18,10,14,6.00
2023,04,18,10,15,6.10
2023,04,18,10,16,6.10
2023,04,18,10,17,6.20
2023,04,18,10,18,6.20
2023,04,18,10,19,6.30
2023,04,18,10,20,6.30
2023,04,18,10,21,6.30
2023,04,18,10,22,6.30
2023,04,18,10,23,6.30
2023,04,18,10,24,6.30
2023,04,18,10,26,6.20
2023,04,18,10,27,6.30
2023,04,18,10,28,6.30
2023,04,18,10,29,6.20
2023,04,18,10,30,6.30
2023,04,18,10,31,6.30
2023,04,18,10,32,6.30
2023,04,18,10,33,6.20
2023,04,18,10,34,6.20
2023,04,18,10,35,6.20
2023,04,18,10,36,6.20
2023,04,18,10,37,6.30
2023,04,18,10,38,6.30
2023,04,18,10,39,6.30
2023,04,18,10,40,6.40
2023,04,18,10,41,6.40
2023,04,18,10,42,6.40
2023,04,18,10,43,6.40
2023,04,18,10,44,6.40
2023,04,18,10,45,6.30
2023,04,18,10,46,6.30
2023,04,18,10,47,6.40
2023,04,18,10,48,6.40
2023,04,18,10,49,6.50
2023,04,18,10,50,6.50
2023,04,18,10,51,6.50
2023,04,18,10,52,6.60
2023,04,18,10,53,6.60
2023,04,18,10,54,6.60
2023,04,18,10,56,6.60
2023,04,18,10,57,6.60
2023,04,18,10,58,6.70
2023,04,18,10,59,6.70
2023,04,18,11,00,6.80
2023,04,18,11,01,6.80
2023,04,18,11,02,6.80
2023,04,18,11,04,6.90
2023,04,18,11,05,6.90
2023,04,18,11,06,7.10
2023,04,18,11,07,7.10
2023,04,18,11,08,7.00
2023,04,18,11,10,7.10
2023,04,18,11,11,7.10
2023,04,18,11,12,7.10
2023,04,18,11,14,7.20
2023,04,18,11,15,7.20
2023,04,18,11,16,7.30
2023,04,18,11,17,7.40
2023,04,18,11,18,7.50
2023,04,18,11,19,7.50
2023,04,18,11,20,7.50
2023,04,18,11,21,7.40
2023,04,18,11,22,7.40
2023,04,18,11,23,7.40
2023,04,18,11,24,7.30
2023,04,18,11,25,7.30
2023,04,18,11,26,7.20
2023,04,18,11,27,7.20
2023,04,18,11,28,7.20
2023,04,18,11,30,7.20
2023,04,18,11,31,7.20
2023,04,18,11,32,7.20
2023,04,18,11,34,7.30
2023,04,18,11,35,7.40
2023,04,18,11,36,7.40
2023,04,18,11,37,7.40
2023,04,18,11,38,7.40
2023,04,18,11,41,7.40
2023,04,18,11,42,7.30
2023,04,18,11,43,7.20
2023,04,18,11,44,7.10
2023,04,18,11,45,7.00
2023,04,18,11,46,6.90
2023,04,18,11,47,6.80
2023,04,18,11,48,6.80
2023,04,18,11,49,6.70
2023,04,18,11,50,6.70
2023,04,18,11,52,6.70
2023,04,18,11,54,6.70
2023,04,18,11,56,6.90
2023,04,18,11,58,7.00
2023,04,18,11,59,7.10
2023,04,18,12,00,7.10
2023,04,18,12,02,7.20
2023,04,18,12,03,7.20
2023,04,18,12,04,7.20
2023,04,18,12,05,7.20
2023,04,18,12,06,7.20
2023,04,18,12,07,7.20
2023,04,18,12,08,7.20
2023,04,18,12,10,7.20
2023,04,18,12,11,7.20
2023,04,18,12,12,7.20
2023,04,18,12,13,7.20
2023,04,18,12,15,7.30
2023,04,18,12,16,7.30
2023,04,18,12,17,7.30
2023,04,18,12,18,7.30
2023,04,18,12,19,7.30
2023,04,18,12,21,7.40
2023,04,18,12,23,7.60
2023,04,18,12,25,7.60
2023,04,18,12,26,7.50
2023,04,18,12,28,7.30
2023,04,18,12,29,7.30
2023,04,18,12,30,7.10
2023,04,18,12,32,6.90
2023,04,18,12,33,6.80
2023,04,18,12,34,6.70
2023,04,18,12,35,6.60
2023,04,18,12,36,6.60
2023,04,18,12,38,6.30
2023,04,18,12,39,6.20
2023,04,18,12,40,6.20
2023,04,18,12,43,6.00
2023,04,18,12,45,5.90
2023,04,18,12,46,5.80
2023,04,18,12,47,5.80
2023,04,18,12,49,5.70
2023,04,18,12,50,5.60
2023,04,18,12,51,5.60
2023,04,18,12,52,5.50
2023,04,18,12,53,5.40
2023,04,18,12,54,5.40
2023,04,18,12,55,5.40
2023,04,18,12,56,5.40
2023,04,18,12,57,5.40
2023,04,18,12,58,5.40
2023,04,18,12,59,5.40
2023,04,18,13,00,5.40
2023,04,18,13,01,5.40
2023,04,18,13,02,5.40
2023,04,18,13,03,5.40
2023,04,18,13,05,5.40
2023,04,18,13,06,5.40
2023,04,18,13,07,5.40
2023,04,18,13,08,5.40
2023,04,18,13,09,5.50
2023,04,18,13,11,5.60
2023,04,18,13,12,5.70
2023,04,18,13,14,5.70
2023,04,18,13,15,5.70
2023,04,18,13,16,5.80
2023,04,18,13,17,6.00
2023,04,18,13,18,6.10
2023,04,18,13,19,6.20
2023,04,18,13,20,6.30
2023,04,18,13,21,6.30
2023,04,18,13,22,6.30
2023,04,18,13,23,6.30
2023,04,18,13,24,6.40
2023,04,18,13,25,6.40
2023,04,18,13,26,6.40
2023,04,18,13,27,6.40
2023,04,18,13,28,6.50
2023,04,18,13,29,6.60
2023,04,18,13,30,6.60
2023,04,18,13,31,6.60
2023,04,18,13,32,6.60
2023,04,18,13,33,6.60
2023,04,18,13,34,6.60
2023,04,18,13,35,6.60
2023,04,18,13,36,6.60
2023,04,18,13,37,6.60
2023,04,18,13,38,6.60
2023,04,18,13,39,6.60
2023,04,18,13,40,6.60
2023,04,18,13,42,6.70
2023,04,18,13,43,6.70
2023,04,18,13,44,6.80
2023,04,18,13,45,6.90
2023,04,18,13,46,7.00
2023,04,18,13,48,7.20
2023,04,18,13,49,7.20
2023,04,18,13,50,7.30
2023,04,18,13,51,7.30
2023,04,18,13,52,7.40
2023,04,18,13,54,7.80
2023,04,18,13,55,7.90
2023,04,18,13,56,7.90
2023,04,18,13,57,7.90
2023,04,18,13,58,7.90
2023,04,18,13,59,7.80
2023,04,18,14,00,7.70
2023,04,18,14,02,7.40
2023,04,18,14,03,7.30
2023,04,18,14,04,7.30
2023,04,18,14,05,7.20
2023,04,18,14,06,7.10
2023,04,18,14,07,7.10
2023,04,18,14,08,7.10
2023,04,18,14,09,7.10
2023,04,18,14,10,7.10
2023,04,18,14,11,7.20
2023,04,18,14,12,7.20
2023,04,18,14,14,7.40
2023,04,18,14,15,7.50
2023,04,18,14,16,7.70
2023,04,18,14,17,7.80
2023,04,18,14,18,8.10
2023,04,18,14,19,8.20
2023,04,18,14,20,8.30
2023,04,18,14,21,8.40
2023,04,18,14,23,8.40
2023,04,18,14,24,8.40
2023,04,18,14,26,8.40
2023,04,18,14,27,8.30
2023,04,18,14,28,8.30
2023,04,18,14,29,8.30
2023,04,18,14,30,8.30
2023,04,18,14,31,8.20
2023,04,18,14,32,8.10
2023,04,18,14,34,8.10
2023,04,18,14,35,8.00
2023,04,18,14,37,8.00
2023,04,18,14,38,8.00
2023,04,18,14,39,8.00
2023,04,18,14,40,7.90
2023,04,18,14,41,7.90
2023,04,18,14,42,7.80
2023,04,18,14,43,7.80
2023,04,18,14,44,7.80
2023,04,18,14,45,7.80
2023,04,18,14,46,7.80
2023,04,18,14,48,7.70
2023,04,18,14,49,7.70
2023,04,18,14,50,7.70
2023,04,18,14,51,7.70
2023,04,18,14,52,7.70
2023,04,18,14,53,7.60
2023,04,18,14,54,7.60
2023,04,18,14,56,7.50
2023,04,18,14,57,7.40
2023,04,18,14,58,7.30
2023,04,18,15,00,7.10
2023,04,18,15,02,6.90
2023,04,18,15,03,6.80
2023,04,18,15,04,6.70
2023,04,18,15,05,6.60
2023,04,18,15,06,6.50
2023,04,18,15,08,6.30
2023,04,18,15,09,6.30
2023,04,18,15,10,6.20
2023,04,18,15,12,5.90
2023,04,18,15,13,5.90
2023,04,18,15,14,5.80
2023,04,18,15,15,5.80
2023,04,18,15,16,5.80
2023,04,18,15,17,5.70
2023,04,18,15,19,5.70
2023,04,18,15,20,5.70
2023,04,18,15,22,5.60
2023,04,18,15,23,5.50
2023,04,18,15,24,5.40
2023,04,18,15,25,5.40
2023,04,18,15,26,5.30
2023,04,18,15,28,5.30
2023,04,18,15,29,5.30
2023,04,18,15,30,5.30
2023,04,18,15,31,5.30
2023,04,18,15,32,5.20
2023,04,18,15,34,5.20
2023,04,18,15,36,5.20
2023,04,18,15,37,5.20
2023,04,18,15,38,5.20
2023,04,18,15,40,5.30
2023,04,18,15,41,5.30
2023,04,18,15,42,5.30
2023,04,18,15,43,5.40
2023,04,18,15,44,5.40
2023,04,18,15,46,5.50
2023,04,18,15,48,5.50
2023,04,18,15,49,5.60
2023,04,18,15,50,5.60
2023,04,18,15,51,5.60
2023,04,18,15,52,5.60
2023,04,18,15,54,5.70
2023,04,18,15,56,5.70
2023,04,18,15,57,5.70
2023,04,18,15,58,5.80
2023,04,18,15,59,5.80
2023,04,18,16,00,5.90
2023,04,18,16,01,6.00
2023,04,18,16,03,6.10
2023,04,18,16,05,5.90
2023,04,18,16,06,5.90
2023,04,18,16,07,5.80
2023,04,18,16,09,5.70
2023,04,18,16,10,5.70
2023,04,18,16,12,5.60
2023,04,18,16,14,5.60
2023,04,18,16,15,5.60
2023,04,18,16,16,5.60
2023,04,18,16,17,5.60
2023,04,18,16,18,5.70
2023,04,18,16,19,5.70
2023,04,18,16,20,5.60
2023,04,18,16,21,5.60
2023,04,18,16,22,5.60
2023,04,18,16,23,5.50
2023,04,18,16,25,5.40
2023,04,18,16,26,5.40
2023,04,18,16,28,5.40
2023,04,18,16,29,5.40
2023,04,18,16,31,5.40
2023,04,18,16,32,5.40
2023,04,18,16,33,5.40
2023,04,18,16,35,5.40
2023,04,18,16,36,5.40
2023,04,18,16,38,5.40
2023,04,18,16,40,5.30
2023,04,18,16,41,5.30
2023,04,18,16,42,5.30
2023,04,18,16,43,5.30
2023,04,18,16,44,5.30
2023,04,18,16,45,5.40
2023,04,18,16,46,5.40
2023,04,18,16,47,5.40
2023,04,18,16,48,5.40
2023,04,18,16,49,5.40
2023,04,18,16,50,5.40
2023,04,18,16,51,5.40
2023,04,18,16,52,5.40
2023,04,18,16,53,5.40
2023,04,18,16,55,5.60
2023,04,18,16,56,5.60
2023,04,18,16,57,5.70
2023,04,18,16,58,5.70
2023,04,18,16,59,5.70
2023,04,18,17,00,5.70
2023,04,18,17,01,5.80
2023,04,18,17,02,5.80
2023,04,18,17,03,5.80
2023,04,18,17,04,5.80
2023,04,18,17,05,5.80
2023,04,18,17,06,5.80
2023,04,18,17,07,5.80
2023,04,18,17,08,5.80
2023,04,18,17,09,5.80
2023,04,18,17,11,5.80
2023,04,18,17,12,5.80
2023,04,18,17,13,5.80
2023,04,18,17,14,5.80
2023,04,18,17,15,5.80
2023,04,18,17,16,5.70
2023,04,18,17,18,5.70
2023,04,18,17,19,5.70
2023,04,18,17,20,5.70
2023,04,18,17,22,5.60
2023,04,18,17,24,5.60
2023,04,18,17,26,5.60
2023,04,18,17,27,5.60
2023,04,18,17,28,5.50
2023,04,18,17,29,5.50
2023,04,18,17,30,5.40
2023,04,18,17,31,5.40
2023,04,18,17,32,5.40
2023,04,18,17,34,5.40
2023,04,18,17,35,5.40
2023,04,18,17,36,5.40
2023,04,18,17,37,5.40
2023,04,18,17,38,5.40
2023,04,18,17,39,5.30
2023,04,18,17,40,5.40
2023,04,18,17,41,5.40
2023,04,18,17,42,5.40
2023,04,18,17,43,5.40
2023,04,18,17,45,5.40
2023,04,18,17,46,5.40
2023,04,18,17,47,5.50
2023,04,18,17,48,5.60
2023,04,18,17,49,5.60
2023,04,18,17,50,5.70
2023,04,18,17,51,5.70
2023,04,18,17,52,5.70
2023,04,18,17,53,5.80
2023,04,18,17,54,5.80
2023,04,18,17,55,5.80
2023,04,18,17,56,5.90
2023,04,18,17,57,5.90
2023,04,18,17,59,5.90
2023,04,18,18,00,5.90
2023,04,18,18,01,5.90
2023,04,18,18,02,5.90
2023,04,18,18,03,6.00
2023,04,18,18,04,6.00
2023,04,18,18,05,6.00
2023,04,18,18,06,6.00
2023,04,18,18,07,6.10
2023,04,18,18,08,6.10
2023,04,18,18,09,6.10
2023,04,18,18,10,6.20
2023,04,18,18,11,6.10
2023,04,18,18,13,6.10
2023,04,18,18,14,6.10
2023,04,18,18,15,6.10
2023,04,18,18,16,6.20
2023,04,18,18,17,6.20
2023,04,18,18,18,6.20
2023,04,18,18,19,6.10
2023,04,18,18,20,6.10
2023,04,18,18,22,6.10
2023,04,18,18,23,6.00
2023,04,18,18,24,6.00
2023,04,18,18,25,5.90
2023,04,18,18,26,5.90
2023,04,18,18,27,5.90
2023,04,18,18,28,5.90
2023,04,18,18,29,5.80
2023,04,18,18,30,5.80
2023,04,18,18,31,5.90
2023,04,18,18,32,5.90
2023,04,18,18,33,5.80
2023,04,18,18,34,5.80
2023,04,18,18,35,5.70
2023,04,18,18,36,5.70
2023,04,18,18,37,5.70
2023,04,18,18,38,5.70
2023,04,18,18,39,5.70
2023,04,18,18,41,5.60
2023,04,18,18,43,5.50
2023,04,18,18,44,5.50
2023,04,18,18,45,5.40
2023,04,18,18,47,5.40
2023,04,18,18,48,5.40
2023,04,18,18,49,5.40
2023,04,18,18,50,5.40
2023,04,18,18,51,5.30
2023,04,18,18,52,5.30
2023,04,18,18,53,5.30
2023,04,18,18,54,5.30
2023,04,18,18,55,5.30
2023,04,18,18,56,5.30
2023,04,18,18,57,5.30
2023,04,18,18,58,5.30
2023,04,18,18,59,5.20
2023,04,18,19,00,5.20
2023,04,18,19,01,5.20
2023,04,18,19,02,5.20
2023,04,18,19,04,5.20
2023,04,18,19,05,5.20
2023,04,18,19,06,5.20
2023,04,18,19,08,5.10
2023,04,18,19,10,5.10
2023,04,18,19,11,5.10
2023,04,18,19,12,5.10
2023,04,18,19,13,5.10
2023,04,18,19,14,5.10
2023,04,18,19,16,5.10
2023,04,18,19,17,5.10
2023,04,18,19,18,5.10
2023,04,18,19,19,5.10
2023,04,18,19,20,5.10
2023,04,18,19,22,5.10
2023,04,18,19,23,5.10
2023,04,18,19,25,5.10
2023,04,18,19,26,5.10
2023,04,18,19,28,5.10
2023,04,18,19,30,5.10
2023,04,18,19,32,5.10
2023,04,18,19,33,5.10
2023,04,18,19,34,5.10
2023,04,18,19,35,5.00
2023,04,18,19,36,5.00
2023,04,18,19,37,4.90
2023,04,18,19,39,4.90
2023,04,18,19,40,4.90
2023,04,18,19,41,4.80
2023,04,18,19,42,4.80
2023,04,18,19,43,4.80
2023,04,18,19,44,4.80
2023,04,18,19,45,4.70
2023,04,18,19,46,4.70
2023,04,18,19,47,4.70
2023,04,18,19,50,4.70
2023,04,18,19,52,4.60
2023,04,18,19,53,4.60
2023,04,18,19,55,4.60
2023,04,18,19,56,4.60
2023,04,18,19,57,4.60
2023,04,18,19,58,4.60
2023,04,18,19,59,4.60
2023,04,18,20,00,4.50
2023,04,18,20,01,4.50
2023,04,18,20,02,4.50